Time,TemperatureF,DewpointF,PressureIn,WindDirection,WindDirectionDegrees,WindSpeedMPH,WindSpeedGustMPH,Humidity,HourlyPrecipIn,Conditions,Clouds,dailyrainin,SolarRadiationWatts/m^2,SoftwareType,DateUTC
2013-07-18 00:02:00,78.0,70.0,-100.00,SSE,163,0.0,3.0,76,0.00,,,0.00,0.000000,,2013-07-18 05:02:00,
2013-07-18 00:11:00,78.0,70.0,-100.00,SSE,163,0.0,3.0,76,0.00,,,0.00,0.000000,,2013-07-18 05:11:00,
2013-07-18 00:22:00,78.0,70.0,-100.00,SSE,163,0.0,3.0,76,0.00,,,0.00,0.000000,,2013-07-18 05:22:00,
2013-07-18 00:32:00,75.0,70.0,-100.00,NE,56,0.0,0.0,84,0.00,,,0.00,0.000000,,2013-07-18 05:32:00,
2013-07-18 01:01:00,75.0,70.0,-100.00,NE,56,0.0,0.0,84,0.00,,,0.00,0.000000,,2013-07-18 06:01:00,
2013-07-18 01:12:00,75.0,70.0,-100.00,NE,56,0.0,0.0,84,0.00,,,0.00,0.000000,,2013-07-18 06:12:00,
2013-07-18 01:22:00,75.0,70.0,-100.00,NE,56,0.0,0.0,84,0.00,,,0.00,0.000000,,2013-07-18 06:22:00,
2013-07-18 01:32:00,73.0,69.0,-100.00,WSW,255,0.0,0.0,88,0.00,,,0.00,0.000000,,2013-07-18 06:32:00,
2013-07-18 01:52:00,73.0,69.0,-100.00,WSW,255,0.0,0.0,88,0.00,,,0.00,0.000000,,2013-07-18 06:52:00,
2013-07-18 02:01:00,73.0,69.0,-100.00,WSW,255,0.0,0.0,88,0.00,,,0.00,0.000000,,2013-07-18 07:01:00,
2013-07-18 02:12:00,73.0,69.0,-100.00,WSW,255,0.0,0.0,88,0.00,,,0.00,0.000000,,2013-07-18 07:12:00,
2013-07-18 02:22:00,73.0,69.0,-100.00,WSW,255,0.0,0.0,88,0.00,,,0.00,0.000000,,2013-07-18 07:22:00,
2013-07-18 04:32:00,71.0,68.0,-100.00,ENE,60,0.0,0.0,90,-99.99,,,0.00,0.000000,,2013-07-18 09:32:00,
2013-07-18 05:01:00,71.0,68.0,-100.00,ENE,60,0.0,0.0,90,-99.99,,,0.00,0.000000,,2013-07-18 10:01:00,
2013-07-18 05:11:00,71.0,68.0,-100.00,ENE,60,0.0,0.0,90,-99.99,,,0.00,0.000000,,2013-07-18 10:11:00,
2013-07-18 05:22:00,71.0,68.0,-100.00,ENE,60,0.0,0.0,90,-99.99,,,0.00,0.000000,,2013-07-18 10:22:00,
2013-07-18 05:32:00,69.0,66.0,-100.00,SW,226,0.0,2.0,90,0.00,,,0.00,0.000000,,2013-07-18 10:32:00,
2013-07-18 06:01:00,69.0,66.0,-100.00,SW,226,0.0,2.0,90,0.00,,,0.00,0.000000,,2013-07-18 11:01:00,
2013-07-18 06:11:00,69.0,66.0,-100.00,SW,226,0.0,2.0,90,0.00,,,0.00,0.000000,,2013-07-18 11:11:00,
2013-07-18 06:22:00,69.0,66.0,-100.00,SW,226,0.0,2.0,90,0.00,,,0.00,0.000000,,2013-07-18 11:22:00,
2013-07-18 07:32:00,74.0,70.0,-100.00,South,188,0.0,0.0,88,-99.99,,,0.00,117.000000,,2013-07-18 12:32:00,
2013-07-18 07:52:00,74.0,70.0,-100.00,South,188,0.0,0.0,88,-99.99,,,0.00,117.000000,,2013-07-18 12:52:00,
2013-07-18 08:01:00,74.0,70.0,-100.00,South,188,0.0,0.0,88,-99.99,,,0.00,117.000000,,2013-07-18 13:01:00,
2013-07-18 08:11:00,74.0,70.0,-100.00,South,188,0.0,0.0,88,-99.99,,,0.00,117.000000,,2013-07-18 13:11:00,
2013-07-18 08:22:00,74.0,70.0,-100.00,South,188,0.0,0.0,88,-99.99,,,0.00,117.000000,,2013-07-18 13:22:00,
2013-07-18 08:32:00,84.0,70.0,-100.00,North,356,0.0,0.0,62,0.00,,,0.00,382.000000,,2013-07-18 13:32:00,
2013-07-18 09:12:00,84.0,70.0,-100.00,North,356,0.0,0.0,62,0.00,,,0.00,382.000000,,2013-07-18 14:12:00,
2013-07-18 09:22:00,84.0,70.0,-100.00,North,356,0.0,0.0,62,0.00,,,0.00,382.000000,,2013-07-18 14:22:00,
2013-07-18 09:32:00,86.0,69.0,-100.00,ENE,60,3.0,7.0,57,0.00,,,0.00,543.000000,,2013-07-18 14:32:00,
2013-07-18 09:53:00,86.0,69.0,-100.00,ENE,60,3.0,7.0,57,0.00,,,0.00,543.000000,,2013-07-18 14:53:00,
2013-07-18 10:01:00,86.0,69.0,-100.00,ENE,60,3.0,7.0,57,0.00,,,0.00,543.000000,,2013-07-18 15:01:00,
2013-07-18 10:11:00,86.0,69.0,-100.00,ENE,60,3.0,7.0,57,0.00,,,0.00,543.000000,,2013-07-18 15:11:00,
2013-07-18 10:22:00,86.0,69.0,-100.00,ENE,60,3.0,7.0,57,0.00,,,0.00,543.000000,,2013-07-18 15:22:00,
2013-07-18 10:32:00,89.0,70.0,-100.00,SE,140,1.0,6.0,53,0.00,,,0.00,538.000000,,2013-07-18 15:32:00,
2013-07-18 10:53:00,89.0,70.0,-100.00,SE,140,1.0,6.0,53,0.00,,,0.00,538.000000,,2013-07-18 15:53:00,
2013-07-18 11:01:00,89.0,70.0,-100.00,SE,140,1.0,6.0,53,0.00,,,0.00,538.000000,,2013-07-18 16:01:00,
2013-07-18 11:11:00,89.0,70.0,-100.00,SE,140,1.0,6.0,53,0.00,,,0.00,538.000000,,2013-07-18 16:11:00,
2013-07-18 11:22:00,89.0,70.0,-100.00,SE,140,1.0,6.0,53,0.00,,,0.00,538.000000,,2013-07-18 16:22:00,
2013-07-18 11:32:00,89.0,68.0,-100.00,West,267,2.0,7.0,51,0.00,,,0.00,670.000000,,2013-07-18 16:32:00,
2013-07-18 11:52:00,89.0,68.0,-100.00,West,267,2.0,7.0,51,0.00,,,0.00,670.000000,,2013-07-18 16:52:00,
2013-07-18 12:02:00,89.0,68.0,-100.00,West,267,2.0,7.0,51,0.00,,,0.00,670.000000,,2013-07-18 17:02:00,
2013-07-18 12:11:00,89.0,68.0,-100.00,West,267,2.0,7.0,51,0.00,,,0.00,670.000000,,2013-07-18 17:11:00,
2013-07-18 12:22:00,89.0,68.0,-100.00,West,267,2.0,7.0,51,0.00,,,0.00,670.000000,,2013-07-18 17:22:00,
2013-07-18 12:32:00,91.0,67.0,-100.00,WNW,284,3.0,6.0,45,0.00,,,0.00,479.000000,,2013-07-18 17:32:00,
2013-07-18 12:52:00,91.0,67.0,-100.00,WNW,284,3.0,6.0,45,0.00,,,0.00,479.000000,,2013-07-18 17:52:00,
2013-07-18 13:01:00,91.0,67.0,-100.00,WNW,284,3.0,6.0,45,0.00,,,0.00,479.000000,,2013-07-18 18:01:00,
2013-07-18 13:11:00,91.0,67.0,-100.00,WNW,284,3.0,6.0,45,0.00,,,0.00,479.000000,,2013-07-18 18:11:00,
2013-07-18 13:22:00,91.0,67.0,-100.00,WNW,284,3.0,6.0,45,0.00,,,0.00,479.000000,,2013-07-18 18:22:00,
2013-07-18 13:32:00,94.0,64.0,-100.00,WNW,292,3.0,9.0,37,0.00,,,0.00,770.000000,,2013-07-18 18:32:00,
2013-07-18 14:02:00,94.0,64.0,-100.00,WNW,292,3.0,9.0,37,0.00,,,0.00,770.000000,,2013-07-18 19:02:00,
2013-07-18 14:11:00,94.0,64.0,-100.00,WNW,292,3.0,9.0,37,0.00,,,0.00,770.000000,,2013-07-18 19:11:00,
2013-07-18 14:22:00,94.0,64.0,-100.00,WNW,292,3.0,9.0,37,0.00,,,0.00,770.000000,,2013-07-18 19:22:00,
2013-07-18 15:32:00,74.0,66.0,-100.00,SW,229,8.0,26.0,75,0.01,,,0.03,590.000000,,2013-07-18 20:32:00,
2013-07-18 16:11:00,74.0,66.0,-100.00,SW,229,8.0,26.0,75,0.01,,,0.03,590.000000,,2013-07-18 21:11:00,
2013-07-18 16:22:00,74.0,66.0,-100.00,SW,229,8.0,26.0,75,0.01,,,0.03,590.000000,,2013-07-18 21:22:00,
2013-07-18 16:32:00,73.0,68.0,-100.00,NNE,28,4.0,10.0,84,0.09,,,0.12,64.000000,,2013-07-18 21:32:00,
2013-07-18 16:52:00,73.0,68.0,-100.00,NNE,28,4.0,10.0,84,0.09,,,0.12,64.000000,,2013-07-18 21:52:00,
2013-07-18 17:01:00,73.0,68.0,-100.00,NNE,28,4.0,10.0,84,0.09,,,0.12,64.000000,,2013-07-18 22:01:00,
2013-07-18 17:11:00,73.0,68.0,-100.00,NNE,28,4.0,10.0,84,0.09,,,0.12,64.000000,,2013-07-18 22:11:00,
2013-07-18 17:22:00,73.0,68.0,-100.00,NNE,28,4.0,10.0,84,0.09,,,0.12,64.000000,,2013-07-18 22:22:00,
2013-07-18 17:32:00,73.0,67.0,-100.00,NE,38,3.0,7.0,81,0.00,,,0.12,84.000000,,2013-07-18 22:32:00,
2013-07-18 17:53:00,73.0,67.0,-100.00,NE,38,3.0,7.0,81,0.00,,,0.12,84.000000,,2013-07-18 22:53:00,
2013-07-18 18:02:00,73.0,67.0,-100.00,NE,38,3.0,7.0,81,0.00,,,0.12,84.000000,,2013-07-18 23:02:00,
2013-07-18 18:11:00,73.0,67.0,-100.00,NE,38,3.0,7.0,81,0.00,,,0.12,84.000000,,2013-07-18 23:11:00,
2013-07-18 18:22:00,73.0,67.0,-100.00,NE,38,3.0,7.0,81,0.00,,,0.12,84.000000,,2013-07-18 23:22:00,
2013-07-18 18:32:00,73.0,69.0,-100.00,SW,236,2.0,9.0,87,0.00,,,-99.99,54.000000,,2013-07-18 23:32:00,
2013-07-18 18:52:00,73.0,69.0,-100.00,SW,236,2.0,9.0,87,0.00,,,-99.99,54.000000,,2013-07-18 23:52:00,
2013-07-18 19:01:00,73.0,69.0,-100.00,SW,236,2.0,9.0,87,0.00,,,-99.99,54.000000,,2013-07-19 00:01:00,
2013-07-18 19:11:00,73.0,69.0,-100.00,SW,236,2.0,9.0,87,0.00,,,-99.99,54.000000,,2013-07-19 00:11:00,
2013-07-18 19:22:00,73.0,69.0,-100.00,SW,236,2.0,9.0,87,0.00,,,-99.99,54.000000,,2013-07-19 00:22:00,
2013-07-18 19:32:00,74.0,68.0,-100.00,SW,227,3.0,13.0,83,0.00,,,-99.99,49.000000,,2013-07-19 00:32:00,
2013-07-18 19:52:00,74.0,68.0,-100.00,SW,227,3.0,13.0,83,0.00,,,-99.99,49.000000,,2013-07-19 00:52:00,
2013-07-18 20:01:00,74.0,68.0,-100.00,SW,227,3.0,13.0,83,0.00,,,-99.99,49.000000,,2013-07-19 01:01:00,
2013-07-18 20:11:00,74.0,68.0,-100.00,SW,227,3.0,13.0,83,0.00,,,-99.99,49.000000,,2013-07-19 01:11:00,
2013-07-18 20:22:00,74.0,68.0,-100.00,SW,227,3.0,13.0,83,0.00,,,-99.99,49.000000,,2013-07-19 01:22:00,
2013-07-18 20:32:00,73.0,69.0,-100.00,North,7,3.0,15.0,86,0.00,,,0.12,8.000000,,2013-07-19 01:32:00,
2013-07-18 21:02:00,73.0,69.0,-100.00,North,7,3.0,15.0,86,0.00,,,0.12,8.000000,,2013-07-19 02:02:00,
2013-07-18 21:11:00,73.0,69.0,-100.00,North,7,3.0,15.0,86,0.00,,,0.12,8.000000,,2013-07-19 02:11:00,
2013-07-18 21:22:00,73.0,69.0,-100.00,North,7,3.0,15.0,86,0.00,,,0.12,8.000000,,2013-07-19 02:22:00,
2013-07-18 21:32:00,73.0,69.0,-100.00,NE,43,4.0,10.0,87,0.01,,,0.13,0.000000,,2013-07-19 02:32:00,
2013-07-18 21:52:00,73.0,69.0,-100.00,NE,43,4.0,10.0,87,0.01,,,0.13,0.000000,,2013-07-19 02:52:00,
2013-07-18 22:01:00,73.0,69.0,-100.00,NE,43,4.0,10.0,87,0.01,,,0.13,0.000000,,2013-07-19 03:01:00,
2013-07-18 22:11:00,73.0,69.0,-100.00,NE,43,4.0,10.0,87,0.01,,,0.13,0.000000,,2013-07-19 03:11:00,
2013-07-18 22:22:00,73.0,69.0,-100.00,NE,43,4.0,10.0,87,0.01,,,0.13,0.000000,,2013-07-19 03:22:00,
2013-07-18 22:32:00,72.0,69.0,-100.00,ENE,68,4.0,7.0,89,0.01,,,0.14,0.000000,,2013-07-19 03:32:00,
2013-07-18 22:52:00,72.0,69.0,-100.00,ENE,68,4.0,7.0,89,0.01,,,0.14,0.000000,,2013-07-19 03:52:00,
2013-07-18 23:02:00,72.0,69.0,-100.00,ENE,68,4.0,7.0,89,0.01,,,0.14,0.000000,,2013-07-19 04:02:00,
2013-07-18 23:12:00,72.0,69.0,-100.00,ENE,68,4.0,7.0,89,0.01,,,0.14,0.000000,,2013-07-19 04:12:00,
2013-07-18 23:22:00,72.0,69.0,-100.00,ENE,68,4.0,7.0,89,0.01,,,0.14,0.000000,,2013-07-19 04:22:00,
2013-07-18 23:32:00,71.0,68.0,-100.00,WSW,253,0.0,5.0,90,0.00,,,0.14,0.000000,,2013-07-19 04:32:00,
2013-07-18 23:52:00,71.0,68.0,-100.00,WSW,253,0.0,5.0,90,0.00,,,0.14,0.000000,,2013-07-19 04:52:00,